Caldwell, ID

10:11 PM MDT on September 29, 2016 (GMT -0600)
Caldwell Industrial

Weather History for KEUL - May, 2009

Change the Weather History Date:

Tuesday, May 12, 2009

  Actual Average (KBOI) Record (KBOI)
Temperature  
Mean Temperature 54 °F 58 °F  
Max Temperature 60 °F 70 °F 94 °F (1993)
Min Temperature 48 °F 46 °F 24 °F (1985)
Degree Days  
Heating Degree Days 11 8  
Month to date heating degree days 114  
Since 1 July heating degree days 5338  
Cooling Degree Days 0 1  
Month to date cooling degree days 11  
Year to date cooling degree days 14  
Growing Degree Days 4 (Base 50)    
Moisture  
Dew Point 28 °F    
Average Humidity 39    
Maximum Humidity 62    
Minimum Humidity 23    
Precipitation  
Precipitation 0.00 in 0.05 in 1.22 in (1900)
Month to date precipitation 0.55  
Year to date precipitation 5.40  
Snow  
Snow 0.00 in 0.00 in 0.50 in (1970)
Month to date snowfall 0.0  
Since 1 July snowfall 19.2  
Snow Depth -    
Sea Level Pressure  
Sea Level Pressure 29.90 in    
Wind  
Wind Speed 12 mph (NW)    
Max Wind Speed 24 mph    
Max Gust Speed 33 mph    
Visibility 10 miles    
Events      
T = Trace of Precipitation, MM = Missing Value Source: NWS Daily Summary

Daily Weather History Graph

Daily Weather History Graph

Search for Another Location

Airport or City:

Trip Planner

Search our weather history database for the weather conditions in past years. The results will help you decide how hot, cold, wet, or windy it might be!

Date:

Astronomy

May. 12, 2009 Rise Set
Actual Time 6:24 AM MDT 9:01 PM MDT
Civil Twilight 5:51 AM MDT 9:34 PM MDT
Nautical Twilight 5:10 AM MDT 10:16 PM MDT
Astronomical Twilight 4:23 AM MDT 11:03 PM MDT
Moon 12:03 AM MDT (5/12) 8:35 AM MDT (5/12)
Length of Visible Light 15h 43m
Length of Day
14h 37m
Waning Gibbous, 88% of the Moon is Illuminated
May 12
Waning Gibbous
May 17
Last Quarter
May 24
New
May 30
First Quarter
Jun 7
Full

Hourly Weather History & Observations

Time (MDT) Temp. Windchill Dew Point Humidity Pressure Visibility Wind Dir Wind Speed Gust Speed Precip Events Conditions
12:15 AM 53.6 °F - 28.4 °F 38% 29.78 in 10.0 mi WNW 6.9 mph - N/A   Clear
12:35 AM 53.6 °F - 30.2 °F 41% 29.78 in 10.0 mi WNW 10.4 mph - N/A   Clear
1:15 AM 53.6 °F - 33.8 °F 47% 29.79 in 10.0 mi NW 9.2 mph 16.1 mph N/A   Clear
1:35 AM 51.8 °F - 33.8 °F 50% 29.79 in 10.0 mi WNW 10.4 mph - N/A   Scattered Clouds
1:55 AM 51.8 °F - 35.6 °F 54% 29.80 in 10.0 mi WNW 11.5 mph - N/A   Mostly Cloudy
2:15 AM 53.6 °F - 35.6 °F 51% 29.81 in 10.0 mi WNW 10.4 mph - N/A   Mostly Cloudy
2:35 AM 53.6 °F - 35.6 °F 51% 29.81 in 10.0 mi WNW 10.4 mph - N/A   Mostly Cloudy
2:55 AM 53.6 °F - 35.6 °F 51% 29.81 in 10.0 mi NW 6.9 mph - N/A   Mostly Cloudy
3:15 AM 53.6 °F - 35.6 °F 51% 29.82 in 10.0 mi West 8.1 mph - N/A   Overcast
3:35 AM 53.6 °F - 35.6 °F 51% 29.82 in 10.0 mi NW 9.2 mph - N/A   Mostly Cloudy
3:55 AM 51.8 °F - 35.6 °F 54% 29.81 in 10.0 mi NW 8.1 mph - N/A   Partly Cloudy
4:15 AM 51.8 °F - 35.6 °F 54% 29.82 in 10.0 mi NW 3.5 mph - N/A   Clear
4:35 AM 51.8 °F - 35.6 °F 54% 29.83 in 10.0 mi NE 3.5 mph - N/A   Clear
4:55 AM 50.0 °F - 35.6 °F 58% 29.84 in 10.0 mi Calm Calm - N/A   Clear
5:15 AM 51.8 °F - 35.6 °F 54% 29.84 in 10.0 mi NW 6.9 mph - N/A   Clear
5:35 AM 50.0 °F - 35.6 °F 58% 29.84 in 10.0 mi NW 8.1 mph - N/A   Clear
5:55 AM 50.0 °F - 35.6 °F 58% 29.85 in 10.0 mi NW 13.8 mph - N/A   Clear
6:15 AM 50.0 °F - 33.8 °F 54% 29.85 in 10.0 mi NW 5.8 mph - N/A   Clear
6:35 AM 48.2 °F - 33.8 °F 58% 29.86 in 10.0 mi NW 8.1 mph - N/A   Clear
6:55 AM 48.2 °F - 35.6 °F 62% 29.86 in 10.0 mi NW 8.1 mph - N/A   Clear
7:35 AM 50.0 °F - 35.6 °F 58% 29.89 in 10.0 mi WNW 9.2 mph - N/A   Clear
7:55 AM 51.8 °F - 33.8 °F 50% 29.90 in 10.0 mi WNW 19.6 mph 24.2 mph N/A   Clear
8:15 AM 51.8 °F - 30.2 °F 44% 29.90 in 10.0 mi WNW 16.1 mph 20.7 mph N/A   Clear
8:35 AM 51.8 °F - 28.4 °F 41% 29.91 in 10.0 mi NW 16.1 mph 31.1 mph N/A   Clear
8:55 AM 51.8 °F - 26.6 °F 38% 29.91 in 10.0 mi NW 23.0 mph 28.8 mph N/A   Clear
9:15 AM 53.6 °F - 26.6 °F 35% 29.92 in 10.0 mi NW 24.2 mph 31.1 mph N/A   Clear
9:35 AM 53.6 °F - 26.6 °F 35% 29.93 in 10.0 mi NW 19.6 mph 28.8 mph N/A   Clear
9:55 AM 55.4 °F - 26.6 °F 33% 29.93 in 10.0 mi NW 19.6 mph 27.6 mph N/A   Clear
10:15 AM 55.4 °F - 24.8 °F 31% 29.94 in 10.0 mi West 20.7 mph 27.6 mph N/A   Clear
10:35 AM 55.4 °F - 24.8 °F 31% 29.95 in 9.0 mi WNW 15.0 mph 26.5 mph N/A   Clear
10:55 AM 55.4 °F - 24.8 °F 31% 29.95 in 10.0 mi WNW 18.4 mph 26.5 mph N/A   Clear
11:15 AM 55.4 °F - 24.8 °F 31% 29.96 in 10.0 mi WNW 20.7 mph 27.6 mph N/A   Clear
11:35 AM 57.2 °F - 21.2 °F 25% 29.96 in 10.0 mi West 19.6 mph 29.9 mph N/A   Clear
11:55 AM 57.2 °F - 21.2 °F 25% 29.96 in 10.0 mi NW 17.3 mph 27.6 mph N/A   Clear
12:15 PM 57.2 °F - 23.0 °F 27% 29.97 in 10.0 mi WNW 18.4 mph 25.3 mph N/A   Scattered Clouds
12:35 PM 55.4 °F - 23.0 °F 29% 29.97 in 10.0 mi WNW 15.0 mph 23.0 mph N/A   Mostly Cloudy
12:55 PM 55.4 °F - 21.2 °F 26% 29.97 in 10.0 mi West 9.2 mph 18.4 mph N/A   Mostly Cloudy
1:15 PM 55.4 °F - 21.2 °F 26% 29.97 in 10.0 mi NW 16.1 mph 19.6 mph N/A   Mostly Cloudy
1:35 PM 59.0 °F - 21.2 °F 23% 29.97 in 10.0 mi WNW 17.3 mph 32.2 mph N/A   Mostly Cloudy
1:55 PM 60.8 °F - 23.0 °F 23% 29.97 in 10.0 mi WNW 17.3 mph 26.5 mph N/A   Overcast
2:15 PM 57.2 °F - 19.4 °F 23% 29.97 in 10.0 mi WNW 19.6 mph 24.2 mph N/A   Overcast
2:35 PM 57.2 °F - 21.2 °F 25% 29.97 in 10.0 mi WNW 12.7 mph 24.2 mph N/A   Overcast
2:55 PM 57.2 °F - 21.2 °F 25% 29.97 in 10.0 mi WSW 15.0 mph 21.9 mph N/A   Overcast
3:15 PM 57.2 °F - 19.4 °F 23% 29.96 in 10.0 mi WNW 12.7 mph 21.9 mph N/A   Overcast
3:35 PM 55.4 °F - 19.4 °F 25% 29.96 in 10.0 mi WNW 10.4 mph - N/A   Overcast
3:55 PM 55.4 °F - 19.4 °F 25% 29.97 in 10.0 mi NNW 17.3 mph 25.3 mph N/A   Overcast
4:15 PM 55.4 °F - 21.2 °F 26% 29.98 in 10.0 mi WNW 8.1 mph - N/A   Overcast
4:35 PM 53.6 °F - 21.2 °F 28% 29.98 in 10.0 mi SW 8.1 mph - N/A   Overcast
4:55 PM 55.4 °F - 21.2 °F 26% 29.98 in 10.0 mi NW 15.0 mph 23.0 mph N/A   Overcast
5:15 PM 55.4 °F - 21.2 °F 26% 29.98 in 10.0 mi NW 20.7 mph 27.6 mph N/A   Overcast
5:35 PM 55.4 °F - 21.2 °F 26% 29.99 in 10.0 mi NW 16.1 mph 33.4 mph N/A   Overcast
5:55 PM 55.4 °F - 24.8 °F 31% 29.99 in 10.0 mi NNW 20.7 mph - N/A   Overcast
6:15 PM 55.4 °F - 26.6 °F 33% 30.00 in 10.0 mi North 23.0 mph 32.2 mph N/A   Overcast
6:35 PM 53.6 °F - 24.8 °F 33% 30.02 in 10.0 mi North 18.4 mph 29.9 mph N/A   Mostly Cloudy
6:55 PM 51.8 °F - 24.8 °F 35% 30.02 in 10.0 mi NNE 19.6 mph 26.5 mph N/A   Overcast
7:15 PM 51.8 °F - 24.8 °F 35% 30.03 in 10.0 mi North 24.2 mph 31.1 mph N/A   Overcast
7:35 PM 50.0 °F - 23.0 °F 35% 30.04 in 10.0 mi North 26.5 mph 33.4 mph N/A   Overcast
7:55 PM 48.2 °F - 23.0 °F 37% 30.06 in 10.0 mi NNW 18.4 mph 33.4 mph N/A   Overcast
8:15 PM 48.2 °F - 21.2 °F 34% 30.07 in 10.0 mi North 18.4 mph 28.8 mph N/A   Overcast
8:35 PM 46.4 °F 40.1 °F 21.2 °F 37% 30.07 in 10.0 mi North 15.0 mph - N/A   Mostly Cloudy
8:55 PM 46.4 °F 39.5 °F 21.2 °F 37% 30.08 in 10.0 mi North 17.3 mph 21.9 mph N/A   Mostly Cloudy
9:15 PM 46.4 °F 40.7 °F 21.2 °F 37% 30.09 in 10.0 mi North 12.7 mph - N/A   Mostly Cloudy
9:35 PM 44.6 °F 38.8 °F 21.2 °F 39% 30.10 in 10.0 mi North 11.5 mph - N/A   Scattered Clouds
9:55 PM 44.6 °F 38.8 °F 21.2 °F 39% 30.11 in 10.0 mi North 11.5 mph - N/A   Partly Cloudy
10:15 PM 42.8 °F 38.0 °F 21.2 °F 42% 30.12 in 10.0 mi NNW 8.1 mph - N/A   Clear
10:35 PM 42.8 °F 37.5 °F 21.2 °F 42% 30.13 in 10.0 mi NNW 9.2 mph - N/A   Clear
10:55 PM 41.0 °F 33.9 °F 21.2 °F 45% 30.14 in 10.0 mi NNW 12.7 mph - N/A   Clear
11:15 PM 41.0 °F 33.9 °F 21.2 °F 45% 30.14 in 10.0 mi North 12.7 mph - N/A   Clear
11:35 PM 41.0 °F 35.2 °F 23.0 °F 49% 30.16 in 10.0 mi North 9.2 mph - N/A   Clear
11:55 PM 39.2 °F 34.2 °F 21.2 °F 49% 30.17 in 10.0 mi WSW 6.9 mph - N/A   Clear